Tracking 28790 objects as of 18-Apr-2024
HD Live streaming from Space Station
objects crossing your sky now

NOAA 16 DEB

Track NOAA 16 DEB now!
10-day predictions


NORAD ID: 42402
Int'l Code: 2000-055SW
Perigee: 769.4 km
Apogee: 819.2 km
Inclination: 99.0 °
Period: 100.6 minutes
Semi major axis: 7165 km
RCS: Unknown
Launch date: September 21, 2000
Source: United States (US)
Launch site: AIR FORCE WESTERN TEST RANGE (AFWTR)

Note: This is SATELLITE DEBRIS
Your satellite tracking list
Your tracking list is empty




NASA's NSSDC Master Catalog

Two Line Element Set (TLE):
1 42402U 00055SW  24109.27905234  .00011316  00000-0  42525-2 0  9992
2 42402  99.0423 277.6455 0034769 294.8357  64.9211 14.31373674422723
Source of the keplerian elements: AFSPC